User: anonymous   Login
Location: Oshawa
(43.9000°N, 78.8670°W)
Time: 23:13:35
(UTC-05:00)
Language:

Cosmos 839 Rocket - Orbit

View from above orbital plane
View from above orbital plane
View from above satellite
View from above satellite

Ground track
Ground track

The orbit data is extracted from the following two-line orbital elements,

1  9013U 76067B   18054.58492574 -.00000032 +00000-0 +79973-4 0  9996
2  9013 065.8624 238.4026 0718186 334.0863 042.9955 12.35331311877468
Epoch (UTC): 23 February 2018 14:02:17
Eccentricity: 0.0718186
inclination: 65.8624°
perigee height: 959 km
apogee height: 2094 km
right ascension of ascending node: 238.4026°
argument of perigee: 334.0863°
revolutions per day: 12.35331311
mean anomaly at epoch: 42.9955°
orbit number at epoch: 87746

The dashed part of the orbit path shows where the satellite is in the earth's shadow,  

DLR